sat.trackr.live / text

‹ back to catalog

STARLINK-4591

NORAD 53607 · 2022-104V

PAYLOAD ACTIVE UNKNOWN

§ Identity

Operator
Country
US
Launch date
2022-08-28
Launch site
AFETR
Launch vehicle
Mass (kg)
RCS (m²)

Purposes: comms

External: N2YO · Heavens-Above · Gunter

§ Orbital elements

Epoch: 2026-05-24T17:29:32.789472Z

Period
95.44 min
Inclination
53.2170°
Eccentricity
0.0001361
Mean motion
15.08837716 rev/d
Perigee alt
538.8 km
Apogee alt
540.7 km
Semi-major
6,917.9 km
B*
2.4329e-5
RAAN
257.8193°
Arg perigee
92.7862°
Mean anomaly
267.3286°
Rev number
20,716

§ Raw data

STARLINK-45911 53607U 22104V   26144.72885173  .00000099  00000+0  24329-4 0  99992 53607  53.2170 257.8193 0001361  92.7862 267.3286 15.08837716207167

JSON: /api/v1/satellites/53607 · /tle

For live sub-satellite position, see the globe view (requires WebGL).

§ Visibility from observer

Set your observer location to see the next 7 days of passes ≥ 10°. The values pass through the URL so the page stays shareable.

No JS? Fill the form by hand. The geolocation button needs JavaScript.